This is the latest recevied weather packets stored in our database for station/object KB3VSP. If no packets are shown the sender has not sent any weather packets the latest 10 day(s).
| Time | Temp. | Humidity | Pressure | Rain* | Wind** | Luminosity | Snow |
|---|---|---|---|---|---|---|---|
| 1777424184 | 18.89° C | 76% | 1012.6 hPa | 0 mm | - | 0 W/m² | - |
| 1777423882 | 18.89° C | 74% | 1012.5 hPa | 0 mm | - | 0 W/m² | - |
| 1777423578 | 19.44° C | 72% | 1012.6 hPa | 0 mm | - | 0 W/m² | - |
| 1777423274 | 19.44° C | 71% | 1012.4 hPa | 0 mm | - | 0 W/m² | - |
| 1777422969 | 20° C | 70% | 1012.5 hPa | 0 mm | - | 0 W/m² | - |
| 1777422664 | 20° C | 70% | 1012.7 hPa | 0 mm | - | 0 W/m² | - |
| 1777422359 | 20° C | 68% | 1012.6 hPa | 0 mm | - | 0 W/m² | - |
| 1777422054 | 20.56° C | 68% | 1012.5 hPa | 0 mm | - | 0 W/m² | - |
| 1777421749 | 20.56° C | 67% | 1012.6 hPa | 0 mm | - | 0 W/m² | - |
| 1777421445 | 20.56° C | 67% | 1012.7 hPa | 0 mm | - | 0 W/m² | - |
| 1777421141 | 20.56° C | 66% | 1012.5 hPa | 0 mm | - | 1 W/m² | - |
| 1777420838 | 20.56° C | 66% | 1012.7 hPa | 0 mm | - | 2 W/m² | - |
| 1777420534 | 21.11° C | 66% | 1012.9 hPa | 0 mm | - | 4 W/m² | - |
| 1777420230 | 21.11° C | 66% | 1013 hPa | 0 mm | - | 4 W/m² | - |
| 1777419926 | 21.11° C | 65% | 1013 hPa | 0 mm | - | 6 W/m² | - |
| 1777419622 | 21.11° C | 64% | 1013.1 hPa | 0 mm | - | 12 W/m² | - |
| 1777419316 | 21.67° C | 63% | 1013 hPa | 0 mm | - | 14 W/m² | - |
| 1777419014 | 21.67° C | 62% | 1012.7 hPa | 0 mm | - | 21 W/m² | - |
| 1777418708 | 21.67° C | 62% | 1012.6 hPa | 0 mm | - | 28 W/m² | - |
| 1777418405 | 22.22° C | 60% | 1012.5 hPa | 0 mm | - | 25 W/m² | - |
| 1777418101 | 22.22° C | 61% | 1012.3 hPa | 0 mm | - | 40 W/m² | - |
| 1777417797 | 22.78° C | 59% | 1012.2 hPa | 0 mm | - | 48 W/m² | - |
| 1777417493 | 22.22° C | 59% | 1012.2 hPa | 0 mm | - | 35 W/m² | - |
| 1777417189 | 22.22° C | 61% | 1012.2 hPa | 0 mm | - | 35 W/m² | - |
| 1777416885 | 22.22° C | 62% | 1012.4 hPa | 0 mm | - | 46 W/m² | - |
* Rain latest hour (hover to see other rain measurements)
** Current wind speed in m/s (hover to see current wind gust speed)